Simultaneous Nadir Overpasses (SNOs) Predictions

Prediction of SNOs between NOAA-20 and NOAA-19 Satellite Orbit:

Table of predicted SNOs for the next 14.0 days since TLE Epoch: 3/6/2020
Index Date (NOAA-20) Time (NOAA-20) Lat,Lon (NOAA-20) SZA (NOAA-20 ) Date (NOAA-19) Time (NOAA-19) Lat,Lon (NOAA-19) SZA (NOAA-19 ) Distance(km) Time Diff (sec)
1 03/19/2020 19:42:56 -79.51, 29.84 98.36 03/19/2020 19:41:48 -79.49, 29.77 98.34 3.13 68
2 03/19/2020 20:33:41 79.51,-162.80 81.62 03/19/2020 20:32:43 79.50,-162.84 81.65 1.24 58
3 03/19/2020 21:24:26 -79.51, 4.44 98.38 03/19/2020 21:23:48 -79.51, 4.45 98.37 1.00 38
4 03/19/2020 22:15:11 79.51, 171.81 81.60 03/19/2020 22:14:43 79.52, 171.84 81.62 1.26 28
5 03/19/2020 23:05:56 -79.52, -20.95 98.40 03/19/2020 23:05:48 -79.52, -20.86 98.40 1.97 8
6 03/19/2020 23:56:41 79.51, 146.41 81.58 03/19/2020 23:56:44 79.51, 146.25 81.59 3.40 3
7 03/20/2020 00:47:26 -79.52, -46.34 98.43 03/20/2020 00:47:49 -79.51, -46.46 98.43 2.44 23
8 03/20/2020 01:38:11 79.51, 121.02 81.55 03/20/2020 01:38:44 79.53, 120.94 81.56 2.30 33
9 03/20/2020 02:28:56 -79.52, -71.74 98.45 03/20/2020 02:29:49 -79.53, -71.77 98.46 1.47 53
10 03/20/2020 03:19:41 79.52, 95.63 81.53 03/20/2020 03:20:44 79.55, 95.63 81.52 3.36 63




NCC Satellite Simultaneous Nadir Overpasses (SNOs) Prediction Service
